Location: Chiroubles
(46.1812°N, 4.6660°E)
Time: 00:54:59
(UTC+00:00)

X-37B - Pass Details

Date: 15 August 2020
Orbit: 386 x 387 km, 45.0° (Epoch: 18 September)

Event Time Altitude Azimuth Distance (km) Brightness Sun altitude
Rises 20:24:50 0° 277° (W) 2,266 5.5 -15.0°
Reaches altitude 10° 20:26:57 10° 271° (W) 1,411 4.2 -15.3°
Maximum altitude 20:30:01 47° 196° (SSW) 520 1.0 -15.7°
Enters shadow 20:30:38 40° 158° (SSE) 585 1.0 -15.8°
